Nashville, TN

6:44 AM CDT on September 18, 2019 (GMT -0500)
Nashville International

Weather History for KBNA - May, 2019

Change the Weather History Date:

Sunday, May 12, 2019

  Actual Average Record
Temperature  
Mean Temperature 61 °F 66 °F  
Max Temperature 67 °F 77 °F 92 °F (1902)
Min Temperature 54 °F 56 °F 41 °F (1951)
Degree Days  
Heating Degree Days 4    
Month to date heating degree days 8  
Since 1 July heating degree days 3201  
Cooling Degree Days 0    
Month to date cooling degree days 52  
Year to date cooling degree days 111  
Growing Degree Days 12 (Base 50)    
Moisture  
Dew Point 56 °F    
Average Humidity 79    
Maximum Humidity 93    
Minimum Humidity 67    
Precipitation  
Precipitation T in 0.20 in 1.36 in (1991)
Month to date precipitation 1.37 2.27  
Year to date precipitation 29.25 18.07  
Sea Level Pressure  
Sea Level Pressure 29.79 in    
Wind  
Wind Speed 7 mph (WNW)    
Max Wind Speed 14 mph    
Max Gust Speed 20 mph    
Visibility 9 miles    
Events Rain    
T = Trace of Precipitation, MM = Missing Value Source: NWS Daily Summary

Daily Weather History Graph

Daily Weather History Graph

Search for Another Location

Airport or City:

Astronomy

May. 12, 2019 Rise Set
Actual Time 5:43 AM CDT 7:43 PM CDT
Civil Twilight 5:15 AM CDT 8:11 PM CDT
Nautical Twilight 4:40 AM CDT 8:46 PM CDT
Astronomical Twilight 4:03 AM CDT 9:23 PM CDT
Moon 1:00 PM CDT (5/12) 2:06 AM CDT (5/12)
Length of Visible Light 14h 56m
Length of Day
13h 59m
First Quarter, 58% of the Moon is Illuminated
May 12
First Quarter
May 18
Full
May 26
Last Quarter
Jun 3
New
Jun 10
First Quarter

Hourly Weather History & Observations

Time (CDT) Temp. Dew Point Humidity Pressure Visibility Wind Dir Wind Speed Gust Speed Precip Events Conditions
12:12 AM 66.9 °F 62.1 °F 84% 29.76 in 10.0 mi WSW 3.5 mph - N/A   Overcast
12:34 AM 66.0 °F 63.0 °F 90% 29.76 in 10.0 mi Calm Calm - N/A   Overcast
12:53 AM 66.0 °F 63.0 °F 90% 29.75 in 10.0 mi Calm Calm - N/A   Overcast
1:10 AM 66.0 °F 62.1 °F 87% 29.76 in 10.0 mi West 6.9 mph - N/A   Overcast
1:53 AM 64.9 °F 62.1 °F 90% 29.74 in 10.0 mi West 4.6 mph - N/A   Overcast
2:24 AM 64.0 °F 60.1 °F 87% 29.76 in 10.0 mi West 5.8 mph - N/A   Overcast
2:35 AM 64.0 °F 60.1 °F 87% 29.76 in 10.0 mi West 6.9 mph - N/A   Overcast
2:53 AM 63.0 °F 59.0 °F 87% 29.75 in 10.0 mi WSW 4.6 mph - N/A   Overcast
3:47 AM 62.6 °F 59.0 °F 88% 29.76 in 10.0 mi WNW 4.6 mph - N/A   Overcast
3:53 AM 63.0 °F 59.0 °F 87% 29.75 in 9.0 mi NW 8.1 mph - N/A   Overcast
4:53 AM 60.1 °F 57.0 °F 90% 29.76 in 5.0 mi NNW 5.8 mph - N/A   Overcast
5:53 AM 59.0 °F 55.9 °F 90% 29.78 in 4.0 mi NW 5.8 mph - N/A   Overcast
6:53 AM 59.0 °F 55.9 °F 90% 29.80 in 2.5 mi NNW 4.6 mph - 0.00 in   Light Drizzle
7:18 AM 59.0 °F 55.9 °F 90% 29.81 in 1.5 mi WNW 3.5 mph - 0.00 in   Light Drizzle
7:53 AM 59.0 °F 55.0 °F 87% 29.80 in 1.5 mi NW 5.8 mph - 0.00 in   Overcast
8:20 AM 57.9 °F 54.0 °F 87% 29.81 in 8.0 mi NW 6.9 mph - N/A   Overcast
8:53 AM 59.0 °F 54.0 °F 83% 29.81 in 10.0 mi WNW 6.9 mph - N/A   Overcast
9:53 AM 60.1 °F 55.0 °F 83% 29.81 in 10.0 mi WNW 6.9 mph - N/A   Overcast
10:53 AM 61.0 °F 55.9 °F 83% 29.82 in 10.0 mi West 6.9 mph - N/A   Overcast
11:03 AM 61.0 °F 55.0 °F 81% 29.83 in 10.0 mi WNW 5.8 mph - N/A   Overcast
11:53 AM 63.0 °F 55.0 °F 75% 29.81 in 10.0 mi WNW 6.9 mph - N/A   Overcast
12:53 PM 64.0 °F 54.0 °F 70% 29.80 in 10.0 mi WSW 5.8 mph - N/A   Overcast
1:53 PM 64.0 °F 54.0 °F 70% 29.79 in 10.0 mi WNW 5.8 mph - N/A   Overcast
2:53 PM 64.0 °F 54.0 °F 70% 29.78 in 10.0 mi NW 11.5 mph - N/A   Mostly Cloudy
3:53 PM 64.9 °F 54.0 °F 68% 29.78 in 10.0 mi WNW 8.1 mph - N/A   Mostly Cloudy
4:53 PM 64.0 °F 53.1 °F 67% 29.78 in 10.0 mi WNW 6.9 mph - N/A   Overcast
5:53 PM 63.0 °F 53.1 °F 70% 29.79 in 10.0 mi NW 9.2 mph - N/A   Overcast
6:53 PM 62.1 °F 53.1 °F 72% 29.80 in 10.0 mi WNW 5.8 mph - N/A   Mostly Cloudy
7:53 PM 61.0 °F 53.1 °F 75% 29.81 in 10.0 mi NW 4.6 mph - N/A   Overcast
8:34 PM 61.0 °F 52.0 °F 72% 29.83 in 10.0 mi WNW 5.8 mph - N/A   Overcast
8:53 PM 61.0 °F 52.0 °F 72% 29.82 in 10.0 mi NW 6.9 mph - N/A   Overcast
9:18 PM 60.1 °F 51.1 °F 72% 29.84 in 10.0 mi WNW 8.1 mph - N/A   Overcast
9:53 PM 60.1 °F 51.1 °F 72% 29.84 in 10.0 mi NW 10.4 mph - N/A   Mostly Cloudy
10:53 PM 57.9 °F 48.0 °F 70% 29.85 in 10.0 mi NNW 8.1 mph - N/A   Mostly Cloudy
11:53 PM 55.9 °F 46.9 °F 72% 29.86 in 10.0 mi WNW 5.8 mph - N/A   Clear